DELTA 1 DEB, 10659

Orbit data source: Space-Track

DELTA 1 DEB, 10659 is space debris in SSO originally from a launch on Thu, 29 Jul 1976 UTC launched from the Air Force Western Test Range (AFWTR). Debris objects in space refer to the collection of defunct objects orbiting the Earth. Examples of debris include non-operational satellites, rocket bodies, and fragments generated from explosions, collisions, or faulty payload assembly.

Loading next visibility...
Identifier
10659, 1976-077V
Orbit
SSO
Country
Flag of USUS
Related business
Manufacturer
Unknown
Mission
Spacecraft
Bus & Motor
Unknown
Mass
Unknown
Launch date (UTC)
1976-07-29 (50 years ago)
Launch vehicle
Unknown
Launch site
Air Force Western Test Range (AFWTR)
Object type
Payload
Rocket body
Debris
Shape & HBR
Unknown shape, 0.3 m
Radar Cross Section
Small (<0.1 m²)

Expand to show TLE details & history
Last TLE update: 20 hours ago

TLE from 20 hours ago
0 DELTA 1 DEB
1 10659U 76077V   26065.31439870 -.00000062  00000-0 -19963-3 0  9993
2 10659 102.1912   7.4626 0174806 259.7502 256.5240 12.09387536190198
Epoch: 2026-03-06T07:32Z
TLE epoch observation values (Epoch: 2026-03-06T07:32:44.047Z)
Latitude
25.07243°
Longitude
-83.99979°
Altitude
1,676.743 km
Speed
7.023 km/s
True Right ascension
12h 52m 56s
True Declination
24° 57' 21"
Sunlit
Object was in full shadow at epoch
Visualization orbit readout
Latitude
Unknown
Longitude
Unknown
Altitude
Unknown
Speed
Unknown
Apparent Right ascension
Unknown
Apparent Declination
Unknown
Sunlit
N/A
Visualization observer readout
Local Sidereal Time
07:42:19
Azimuth
Unknown
Elevation
Unknown
Doppler factor
Unknown
Orbital elements
Apogee altitude
1,776.832 km
Perigee altitude
1,496.623 km
Semi-major axis
8,014.864 km
Eccentricity
0.01748
Inclination
102.1912°
RAAN
7.4626°
Arg. of periapsis
259.7502°
True anomaly
254.58626°
Mean anomaly
256.524°
Eccentric anomaly
255.5541°
Mean motion
3.02482 °/min
Orbital period
119.02 mins
BSTAR
-0.00019963
Loading maneuver chart data...
Computing Atmospheric mass density...
Loading historical data...
Loading historical data...
Loading historical data...
Loading historical data...
Loading historical data...
Loading historical data...
Loading historical data...

Documentation

Showing up to 5 results
|